Preview of NWS' New Version of Forecast
This preview is not operational and should not be used for support decisions.

Regional Weather Roundup (RWR)

Issued by New York, NY (OKX)

                            
864 
ASUS41 KOKX 212305
RWROKX

Regional Weather Roundup
National Weather Service New York NY
700 PM EDT THU JUN 21 2018

Note: "FAIR" indicates few or no clouds below 12,000 feet with no
significant weather and/or obstructions to visibility.

NYZ071-072-176-178-NJZ106-104-220000-
New York City Metro Area
  
CITY           SKY/WX    TMP DP  RH WIND       PRES   REMARKS
Central Park   FAIR      81  56  42 VRB3      29.79R                  
Bronx Bot Gard   N/A     84  55  37 NW2       29.79R                  
Bronx Lehman C   N/A     84  54  34 N6          N/A                   
LaGuardia Arpt PTSUNNY   83  59  44 SE9       29.76R                  
Queens College   N/A     79  61  53 S7          N/A                   
Kennedy Intl   PTSUNNY   76  63  64 S7        29.78R                  
Breezy Point     N/A     70 N/A N/A S6          N/A                   
Brooklyn Coll    N/A     79  59  50 SE6         N/A                   
Staten Island    N/A     79  57  47 SE5         N/A                   
Newark/Liberty PTSUNNY   83  56  39 S7        29.76R                  
Teterboro      FAIR      86  53  32 NE8       29.75R                  
$$
 
NYZ177-179-078>081-220000-
Long Island New York
  
CITY           SKY/WX    TMP DP  RH WIND       PRES   REMARKS
Jones Beach      N/A     72 N/A N/A W3          N/A                   
Wantagh          N/A     75  63  64 SW6         N/A                   
Hempstead        N/A     77  64  65 S5        29.80S                  
Matinecock Pt    N/A     82 N/A N/A MISG        N/A                   
Farmingdale    FAIR      77  64  64 SW7       29.77R                  
MacArthur/ISP  PTSUNNY   74  65  73 S9        29.78R                  
Stony Brook      N/A     81  59  47 NW2         N/A                   
Shirley        FAIR      71  66  84 SE6       29.79R                  
Mt Sinai Harb    N/A     73 N/A N/A MISG        N/A                   
Westhampton    FAIR      68  62  81 SE6       29.80R                  
East Hampton   FAIR      67  63  86 MISG      29.79R                  
Southold         N/A     73  66  78 SE5         N/A                   
Montauk          N/A     64  63  96 VRB3      29.81R                  
$$
 
NYZ052-065-067-220000-
Hudson Valley
  
CITY           SKY/WX    TMP DP  RH WIND       PRES   REMARKS
White Plains   FAIR      79  62  56 S3        29.77R                  
Larchmont Harb   N/A     75 N/A N/A NE1         N/A                   
Croton On Huds   N/A     86 N/A N/A NE3         N/A                   
Somers           N/A     79  57  47 N3          N/A                   
Brewster         N/A     77  57  50 N5          N/A                   
Newburgh       PTSUNNY   81  61  50 VRB6      29.80R                  
Montgomery     FAIR      81  58  45 NE7       29.78R                  
Otisville        N/A     79  63  57 NE2         N/A                   
Warwick          N/A     79  64  61 E2          N/A                   
Suffern          N/A     77  57  50 N1          N/A                   
Poughkeepsie   FAIR      81  55  40 N8        29.77R                  
Albany         FAIR      76  49  38 N13       29.83R                  
$$
 
NJZ001-105-106-008-010-013-015-019>022-104-220000-
New Jersey
  
CITY           SKY/WX    TMP DP  RH WIND       PRES   REMARKS
Newark/Liberty PTSUNNY   83  56  39 S7        29.76R                  
Teterboro      FAIR      86  53  32 NE8       29.75R                  
Caldwell       FAIR      84  54  35 NW6       29.77R                  
Somerville     FAIR      78  66  66 CALM      29.75S                  
Linden         NOT AVBL                                               
Perth Amboy      N/A     79 N/A N/A E7          N/A                   
Sussex         PTSUNNY   80  65  59 CALM      29.79R                  
Andover          N/A     80  65  59 CALM      29.79R                  
Trenton        FAIR      83  56  39 N5        29.77R                  
Millville      FAIR      77  68  73 S5        29.79R                  
Atlantic City  CLOUDY    75  63  66 SE6       29.79R                  
Wrightstown    FAIR      80  56  43 N5        29.75R                  
Toms River     FAIR      78  66  66 S6        29.79R                  
Belmar         FAIR      77  61  57 SE6       29.79R                  
$$
 
PAZ047>061-062-071-220000-
Eastern Pennsylvania
  
CITY           SKY/WX    TMP DP  RH WIND       PRES   REMARKS
Philadelphia   PTSUNNY   81  62  52 CALM      29.77R                  
Allentown      FAIR      84  54  35 CALM      29.78R                  
Scranton       FAIR      80  58  46 N10       29.82R                  
$$

CTZ002-004>006-009-010-012-RIZ004-006-007-MAZ004-011-015-220000-
Southern New England

 In CT
  
CITY           SKY/WX    TMP DP  RH WIND       PRES   REMARKS
Bradley Intl   FAIR      82  58  43 N7        29.78R                  
Hartford       FAIR      83  58  42 NE15      29.76R                  
Danbury        FAIR      79  55  43 N6        29.79R                  
Wtrbury/Oxford FAIR      80  58  46 NE8       29.81R                  
Norwalk Harbor   N/A     75 N/A N/A MISG        N/A                   
Bridgeport     FAIR      78  59  51 S5        29.77R                  
Meriden        FAIR      79  61  53 S8        29.77R                  
New Haven      PTSUNNY   77  62  59 SE3       29.78R                  
Chester        FAIR      75  63  64 S7        29.79S                  
Groton         FAIR      67  63  87 SE7       29.80R                  
Willimantic    FAIR      80  60  50 NE9       29.78R                  

 In RI
  
CITY           SKY/WX    TMP DP  RH WIND       PRES   REMARKS
Providence     PTSUNNY   71  63  75 S8        29.80R                  
Block Island   FOG       63  63 100 SE7       29.82R VSB 1/4          
Westerly       CLOUDY    67  65  93 E8        29.81R                  
 
In MA
  
CITY           SKY/WX    TMP DP  RH WIND       PRES   REMARKS
Boston         FAIR      67  59  75 SE8       29.81R                  
Worcester      FAIR      73  59  61 E5        29.83R                  
Westfield      FAIR      79  56  45 NE9       29.78R                  
Provincetown   FAIR      68  61  78 E6        29.81S                  
Nantucket      FAIR      64  62  93 E7        29.81R                  
$$

ANZ330-335-338-340-345-350-353-355-220000-
Coastal Marine Observations

  
STATION/POSITION TIME  SKY/WX   TEMP    WIND        PRES    VSBY  WAVE
                                AIR SEA DIR/SP/G                  HT/PER
                 (UTC)          (F)     (DEG/KT/KT) (MB)    (MI)  (FT/S)
NY Harb Entrance 2250            71 70  190/  6/  8 1008.0          1/ 9
20 S Fire Island 2250            71 70  270/  2/  4 1008.3          2/ 8
Great South Bay  2230            71 77  200/  4/  8   N/A
23 SSW Montauk P 2250            63 64   90/  6/  6 1009.0          2/ 9
15 E Barnegat Li 2230               71                N/A           2/15
Hudson Canyon    2250            66 65   20/ 10/ 12 1007.7          2/ 3
Kings Point      2242            86 66     CALM     1009.0
Execution Rocks  NOT AVBL
Western LI Sound 2220            77      80/  2/  2   N/A           0
Central LI Sound 2230            69      80/  6/  8   N/A           0
Robbins Reef     2248            76     170/ 12/ 12 1008.4
$$


>>>>>>>>>>>>>>>>>>>>>>>>>>>> KEY <<<<<<<<<<<<<<<<<<<<<<<<<<<
>                                                          <
>     SKY/WX - Sky Condition/Present Weather               <
>     TMP    - Temperature in Fahrenheit                   <
>     DP     - Dew Point in Fahrenheit                     <
>     RH     - Relative Humidity in Percent                <
>     WIND   - Direction (from) and Speed in MPH           <
>     PRES   - Mean Sea Level Pressure (inches of Hg)      <
>     WCI    - Wind Chill Index                            <
>     VSB    - Visibility in Miles                         <
>     HX     - Heat Index                                  <
>     TC     - Temperature in Celsius                      <
>     VRB    - Varibale Wind Direction                     <
>                                                          <
>>>>>>>>>>>>>>>>>>>>>>>>>>>> KEY <<<<<<<<<<<<<<<<<<<<<<<<<<<